Weather History for New Bedford, MA

Change the Weather History Date:

Wednesday, December 26, 2012

  Actual Average Record
Temperature  
Mean Temperature 30 °F -  
Max Temperature 37 °F 38 °F 62 °F (1982)
Min Temperature 23 °F 23 °F -5 °F (1980)
Degree Days  
Heating Degree Days 35    
Moisture  
Dew Point 26 °F    
Average Humidity 77    
Maximum Humidity 93    
Minimum Humidity 62    
Precipitation  
Precipitation 0.29 in - - ()
Sea Level Pressure  
Sea Level Pressure 30.15 in    
Wind  
Wind Speed 7 mph (NE)    
Max Wind Speed 17 mph    
Max Gust Speed 26 mph    
Visibility 8 miles    
Events Rain , Snow    
Averages and records for this station are not official NWS values.
T = Trace of Precipitation, MM = Missing Value Source: NWS Daily Summary

Daily Weather History Graph

Daily Weather History Graph

Search for Another Location

Airport:

Trip Planner

Search our weather history database for the weather conditions in past years. The results will help you decide how hot, cold, wet, or windy it might be!

Date:

Astronomy

Dec. 26, 2012 Rise Set
Actual Time 7:09 AM EST 4:19 PM EST
Civil Twilight 6:38 AM EST 4:51 PM EST
Nautical Twilight 6:03 AM EST 5:26 PM EST
Astronomical Twilight 5:29 AM EST 6:00 PM EST
Moon 3:11 PM EST (12/26) 5:30 AM EST (12/26)
Length of Visible Light 10h 13m
Length of Day
9h 10m
Waxing Gibbous, 97% of the Moon is Illuminated
Dec 26
Waxing Gibbous
Dec 28
Full
Jan 4
Last Quarter
Jan 11
New
Jan 18
First Quarter

Hourly Weather History & Observations

Time (EST) Temp. Windchill Dew Point Humidity Pressure Visibility Wind Dir Wind Speed Gust Speed Precip Events Conditions
12:53 AM 27.0 °F 21.6 °F 19.9 °F 75% 30.22 in 10.0 mi NNW 4.6 mph - N/A   Clear
1:53 AM 26.1 °F 19.4 °F 19.0 °F 75% 30.25 in 10.0 mi Variable 5.8 mph - N/A   Clear
2:53 AM 25.0 °F 19.3 °F 18.0 °F 75% 30.26 in 10.0 mi NNW 4.6 mph - N/A   Clear
3:53 AM 24.8 °F 19.1 °F 17.6 °F 74% 30.26 in 10.0 mi NNW 4.6 mph - N/A   Clear
4:53 AM 23.0 °F 17.0 °F 16.0 °F 74% 30.25 in 10.0 mi Variable 4.6 mph - N/A   Clear
5:53 AM 23.0 °F 18.4 °F 16.0 °F 74% 30.25 in 10.0 mi Variable 3.5 mph - N/A   Clear
6:53 AM 23.0 °F - 15.1 °F 72% 30.27 in 10.0 mi Calm Calm - N/A   Clear
7:53 AM 23.0 °F - 16.0 °F 74% 30.30 in 10.0 mi Calm Calm - N/A   Clear
8:53 AM 28.0 °F 21.7 °F 18.0 °F 66% 30.29 in 10.0 mi North 5.8 mph - N/A   Clear
9:53 AM 32.0 °F 27.5 °F 21.9 °F 66% 30.29 in 10.0 mi North 4.6 mph - N/A   Clear
10:53 AM 36.0 °F 32.1 °F 25.0 °F 64% 30.27 in 10.0 mi NNE 4.6 mph - N/A   Scattered Clouds
11:53 AM 37.9 °F 35.5 °F 26.1 °F 62% 30.23 in 10.0 mi NNE 3.5 mph - N/A   Mostly Cloudy
12:53 PM 37.9 °F 32.7 °F 27.0 °F 65% 30.21 in 10.0 mi NE 6.9 mph - N/A   Mostly Cloudy
1:53 PM 37.9 °F 30.5 °F 27.0 °F 65% 30.20 in 10.0 mi ENE 11.5 mph - N/A   Mostly Cloudy
2:53 PM 37.0 °F 31.0 °F 26.1 °F 65% 30.20 in 10.0 mi ENE 8.1 mph - N/A   Scattered Clouds
3:25 PM 35.6 °F 28.6 °F 26.6 °F 70% 30.19 in 10.0 mi ENE 9.2 mph - N/A   Mostly Cloudy
3:53 PM 36.0 °F 28.5 °F 27.0 °F 70% 30.18 in 10.0 mi ENE 10.4 mph 19.6 mph N/A   Mostly Cloudy
4:53 PM 36.0 °F 29.6 °F 28.0 °F 73% 30.17 in 10.0 mi ENE 8.1 mph - N/A   Overcast
5:53 PM 36.0 °F 29.0 °F 28.9 °F 76% 30.13 in 10.0 mi ENE 9.2 mph - N/A   Overcast
6:53 PM 37.0 °F 29.8 °F 30.0 °F 76% 30.11 in 10.0 mi ENE 10.4 mph - N/A   Overcast
7:53 PM 37.0 °F 28.1 °F 32.0 °F 82% 30.07 in 8.0 mi East 15.0 mph 24.2 mph 0.01 in Rain Light Rain
8:16 PM 35.6 °F 25.5 °F 32.0 °F 87% 30.04 in 4.0 mi ENE 17.3 mph - 0.03 in Rain Rain
8:24 PM 35.6 °F 26.6 °F 32.0 °F 87% 30.04 in 4.0 mi ENE 13.8 mph 24.2 mph 0.04 in Rain Rain
8:31 PM 35.6 °F 26.2 °F 32.0 °F 87% 30.02 in 4.0 mi ENE 15.0 mph - 0.06 in Snow Light Snow
8:53 PM 35.1 °F 25.5 °F 32.0 °F 89% 30.01 in 2.5 mi East 15.0 mph 23.0 mph 0.09 in Snow Light Snow
9:18 PM 33.8 °F 25.3 °F 32.0 °F 93% 30.00 in 1.8 mi East 11.5 mph - 0.04 in Snow Light Snow
9:53 PM 34.0 °F 24.6 °F 32.0 °F 92% 29.96 in 1.8 mi ENE 13.8 mph - 0.09 in Snow Light Snow
10:00 PM 33.8 °F 24.8 °F 32.0 °F 93% 29.95 in 3.0 mi ENE 12.7 mph - 0.01 in Snow Light Snow
10:53 PM 35.1 °F 25.9 °F 33.1 °F 92% 29.93 in 5.0 mi East 13.8 mph 24.2 mph 0.05 in Rain Light Rain
11:53 PM 35.1 °F 25.2 °F 33.1 °F 92% 29.82 in 5.0 mi ENE 16.1 mph 26.5 mph 0.05 in Rain Light Rain